Flag for France Weather past 2 weeks in Le Mans, France

Now
72 °F

Clear.


Feels Like: 71 °F
Forecast: 65 / 82 °F
Wind: 5 mph from Northeast

Location: Le Mans Airport

Current Time: Jul 24, 2014 at 2:59:38 AM

Latest Report: Jul 24, 2014 at 2:30 AM


Visibility: N/A

Pressure: 29.92 "Hg

Humidity: 83%

Dew point: 66 °F

Location of Le MansLocation

Historic Weather in Le Mans — Graph

°F

Le Mans temperature yesterday

Maximum temperature yesterday: 84 °F (at 5:00 PM)
Minimum temperature yesterday: 63 °F (at 7:00 AM)
Average temperature yesterday: 74 °F

Past Weeks' High & Low Weather Summary

 TemperatureHumidityPressure
High93 °F (Jul 17, 5:00 PM)100% (Jul 13, 7:30 AM)30.18 "Hg (Jul 13, 7:30 AM)
Low52 °F (Jul 14, 5:00 AM)32% (Jul 17, 5:30 PM)29.74 "Hg (Jul 19, 3:30 AM)
Average69 °F74%30.01 "Hg
* Reported Jul 9 2:00 AM — Jul 24 2:00 AM, Le Mans, Weather by CustomWeather, © 2014

Note: Actual official high and low records may vary slightly from our data, if they occured in-between our weather recording intervals... More about our weather records

Advertising

Le Mans weather history for previous 24 hours

 ConditionsComfort  
Time TempWeatherWind HumidityBarometerVisibility
2:00 AM
Jul 24
73 °FClear.3 mph83%29.92 "HgN/A
1:30 AM73 °FClear.5 mph83%29.92 "HgN/A
1:00 AM73 °FClear.3 mph83%29.92 "HgN/A
12:30 AM75 °FClear.6 mph74%29.92 "HgN/A
12:00 AM75 °FClear.5 mph74%29.95 "HgN/A
11:30 PM
Jul 23
75 °FClear.6 mph74%29.95 "HgN/A
11:00 PM77 °FClear.8 mph69%29.95 "HgN/A
10:30 PM79 °FClear.6 mph61%29.95 "HgN/A
10:00 PM79 °FClear.3 mph58%29.92 "HgN/A
9:30 PM81 °FClear.3 mph54%29.92 "HgN/A
9:00 PM82 °FClear.3 mph51%29.92 "HgN/A
8:30 PM82 °FClear.3 mph51%29.92 "HgN/A
8:00 PM82 °FClear.5 mph51%29.92 "HgN/A
7:30 PM84 °FClear.3 mph48%29.92 "HgN/A
7:00 PM84 °FClear.5 mph48%29.92 "HgN/A
6:30 PM84 °FClear.6 mph45%29.92 "HgN/A
6:00 PM84 °FClear.2 mph45%29.92 "HgN/A
5:30 PM84 °FClear.3 mph43%29.95 "HgN/A
5:00 PM84 °FClear.5 mph45%29.95 "HgN/A
4:30 PM82 °FClear.5 mph51%29.95 "HgN/A
4:00 PM82 °FClear.6 mph48%29.95 "HgN/A
3:30 PM82 °FOvercast.6 mph51%29.98 "HgN/A
3:00 PM81 °FClear.8 mph54%29.98 "HgN/A
1:00 PM75 °FClear.5 mph69%30.01 "HgN/A
12:30 PM75 °FClear.6 mph69%30.01 "HgN/A
12:00 PM73 °FClear.6 mph69%30.01 "HgN/A
11:30 AM73 °FClear.5 mph69%30.01 "HgN/A
11:00 AM70 °FClear.6 mph78%30.01 "HgN/A
10:00 AM66 °FClear.7 mph83%30.04 "HgN/A
8:00 AM63 °FScattered clouds.6 mph88%30.04 "HgN/A
7:30 AM63 °FClear.5 mph88%30.04 "HgN/A
7:00 AM63 °FPassing clouds.7 mph88%30.04 "HgN/A
6:30 AM64 °FMostly cloudy.7 mph83%30.04 "HgN/A
6:00 AM64 °FOvercast.7 mph83%30.04 "HgN/A
5:30 AM64 °FPassing clouds.5 mph83%30.07 "HgN/A
5:00 AM64 °FClear.7 mph83%30.07 "HgN/A
4:30 AM64 °FClear.3 mph88%30.07 "HgN/A
4:00 AM64 °FClear.5 mph88%30.07 "HgN/A
3:30 AM66 °FClear.6 mph83%30.07 "HgN/A
3:00 AM66 °FClear.3 mph83%30.09 "HgN/A
2:30 AM66 °FClear.3 mph83%30.09 "HgN/A
2:00 AM66 °FClear.5 mph83%30.09 "HgN/A
Weather by CustomWeather, © 2014

See weather overviewHow to use our weather pages